Wind_Speed
14 15 15 15 15 14 15 15 14 14 12 12 13 13 12 13 13 13 14 13 13 13 13 14 14 15 15 16 17 17 18 18 18 19 19 18 18 19 20 21 22 22 23
15 15 15 15 16 16 16 16 15 15 14 13 13 13 13 13 13 13 13 13 14 14 15 15 16 16 17 17 17 18 19 19 19 19 20 20 20 20 21 22 22 23 24
16 16 16 16 17 17 17 16 16 15 15 14 14 14 14 14 14 14 14 14 15 15 16 16 17 17 18 18 19 19 20 20 21 21 21 21 21 22 23 23 23 24 24
17 16 16 17 17 17 17 16 16 15 15 15 15 15 15 15 15 16 15 15 15 16 17 17 18 18 19 20 20 21 21 22 22 22 22 22 22 23 23 23 24 25 25
18 18 17 17 17 17 18 16 15 15 15 16 16 16 17 17 16 16 16 16 16 17 18 19 19 20 20 21 21 22 22 23 23 23 24 23 23 23 24 24 25 26 26
19 19 18 18 18 18 18 17 17 17 17 17 17 17 17 16 16 17 17 17 18 19 19 20 20 21 21 21 22 23 24 24 24 24 24 23 23 24 24 25 26 26 26
19 19 18 18 17 18 18 18 18 18 18 17 17 17 16 16 16 16 17 17 18 19 19 19 20 20 21 22 22 23 23 24 24 24 24 23 24 24 25 26 26 27 27
19 18 17 17 18 18 19 19 19 18 18 18 18 17 17 17 16 16 17 18 18 18 17 18 19 20 21 22 22 23 24 24 24 24 25 25 25 25 26 27 27 27 28
19 18 18 18 18 19 19 20 19 19 19 18 18 18 18 18 17 17 18 18 18 17 18 18 19 20 21 22 23 24 24 25 24 25 25 25 25 25 27 28 28 28 29
20 19 19 19 19 20 20 20 20 20 19 19 18 17 18 18 17 17 18 18 18 18 18 19 19 20 21 22 23 23 23 24 24 25 25 26 26 26 27 29 29 29 30
20 20 20 20 20 20 20 20 21 20 20 19 18 17 18 18 18 18 18 19 19 19 19 20 20 20 21 22 23 23 23 24 24 25 25 26 26 27 28 29 29 30 30
21 20 20 20 20 20 20 20 21 20 19 18 18 18 18 18 19 19 19 19 19 20 20 21 22 22 22 23 23 24 24 24 25 26 26 27 27 28 28 28 29 29 30
21 21 21 21 20 20 20 20 20 19 18 18 18 19 19 19 19 19 19 20 20 21 21 22 22 23 23 23 24 24 25 26 27 27 28 28 28 28 28 29 29 29 30
22 22 21 21 21 20 21 21 20 19 19 19 19 19 19 20 20 20 20 21 21 21 22 23 23 23 24 24 25 26 27 27 28 28 29 29 29 29 29 29 30 30 30
23 22 22 22 22 22 22 21 21 20 20 19 20 20 20 20 20 21 21 22 23 23 23 24 24 24 24 25 26 27 29 29 29 30 30 30 30 30 30 30 30 30 30
23 23 22 22 22 23 23 23 22 21 21 20 21 21 21 21 21 22 22 23 24 25 25 25 25 25 25 26 27 28 29 30 30 31 30 30 30 30 30 30 31 31 32
23 23 23 23 23 24 24 23 23 22 22 22 22 22 22 22 23 24 25 25 25 26 26 26 26 26 27 28 29 29 29 30 31 31 31 31 31 31 31 31 31 31 32
24 24 24 24 25 25 24 24 23 23 23 24 24 24 24 25 26 26 27 27 26 27 27 27 28 28 28 29 29 30 30 31 32 32 32 31 31 31 31 31 31 31 32
24 24 25 25 25 25 25 24 24 25 25 25 25 26 26 27 27 28 28 27 28 28 29 29 29 29 29 30 31 31 31 32 32 32 32 32 31 31 31 32 32 32 32
25 25 26 25 25 25 25 25 26 26 26 26 27 27 27 28 28 28 28 29 29 29 30 30 30 30 30 31 31 31 32 32 32 32 32 32 32 32 32 32 32 32 33
25 26 26 26 26 26 26 26 27 27 28 28 27 28 29 29 28 28 29 30 30 30 31 31 31 31 31 32 32 32 32 32 32 32 33 33 33 33 33 33 33 33 33
26 27 27 27 26 26 27 27 28 28 28 28 28 29 30 30 30 30 30 30 30 30 31 31 31 31 32 32 31 31 32 32 33 33 34 34 33 33 33 33 33 33 33
28 28 28 27 26 26 27 28 28 28 28 29 29 29 30 30 30 31 31 31 31 31 31 31 31 31 31 31 31 32 32 33 33 34 34 33 33 33 33 33 33 32 32
29 28 27 27 27 27 28 28 28 29 29 29 29 30 30 31 31 31 32 32 32 31 31 31 31 30 31 32 32 32 33 33 33 33 33 33 33 32 32 32 32 32 32
28 28 28 28 28 28 28 28 29 29 30 30 30 31 31 31 31 31 31 32 32 32 31 31 30 31 32 32 32 32 32 32 32 32 32 32 32 33 33 33 33 33 33
27 28 28 28 28 28 28 29 29 29 29 30 31 31 31 31 31 31 32 32 31 31 31 31 31 32 32 32 32 32 32 33 33 33 33 33 33 33 33 33 33 32 32
Wind_Direction
327 329 329 329 331 331 330 329 329 326 323 322 317 313 309 308 306 304 302 300 300 301 302 302 304 307 307 307 307 309 309 308 307 306 304 304 304 304 303 302 302 303 304
323 323 324 326 325 325 325 327 327 327 323 320 317 314 313 310 308 305 305 301 300 301 301 301 301 302 306 309 309 310 310 310 310 309 307 307 305 305 305 304 306 307 305
322 321 321 321 320 320 322 324 323 321 319 318 317 316 313 310 306 304 302 301 300 300 301 302 301 301 303 307 309 310 310 310 309 309 307 306 305 305 307 308 307 307 306
318 318 318 317 318 318 318 318 319 317 316 316 316 315 314 312 310 306 302 300 299 299 301 302 302 301 302 304 305 307 309 310 310 310 308 305 304 305 306 306 306 306 306
314 314 315 316 317 319 319 319 320 319 318 316 316 316 314 310 309 309 304 299 299 299 300 300 300 300 301 303 304 306 307 307 307 307 307 306 307 307 306 306 305 306 306
310 309 310 313 315 317 320 319 319 317 316 315 314 316 316 315 313 312 308 302 302 301 300 298 298 300 301 302 302 303 303 304 305 305 306 307 308 308 307 307 308 308 307
309 308 308 310 312 313 315 316 317 317 315 316 315 313 313 315 315 314 312 308 307 307 304 301 301 301 301 302 303 304 305 304 304 304 305 307 307 308 308 309 309 309 309
307 308 307 308 310 311 312 313 314 316 316 316 316 313 312 312 312 313 313 313 312 311 310 308 305 304 304 304 304 305 306 306 304 303 305 305 306 307 308 309 309 309 310
304 306 305 306 308 310 310 310 311 314 314 315 314 313 313 313 312 313 312 313 314 311 311 311 310 308 307 307 306 306 306 307 306 306 305 305 305 307 307 308 309 309 309
300 302 302 303 306 308 309 309 310 311 311 311 311 312 312 312 311 313 313 314 313 312 312 312 311 310 310 310 309 308 309 310 310 308 306 305 305 306 307 309 309 309 309
298 299 302 302 303 306 308 307 309 309 309 308 308 308 309 311 310 311 311 312 312 312 313 313 313 314 313 312 312 310 311 312 313 310 307 306 306 307 308 307 309 310 309
297 297 299 301 303 305 306 308 310 310 308 309 307 306 306 309 310 310 309 311 310 311 312 312 313 314 313 311 311 313 313 312 312 312 310 309 308 307 307 308 309 310 310
294 295 297 300 302 303 305 308 310 310 312 311 309 307 307 308 309 309 310 310 311 311 311 311 312 312 312 311 312 313 314 314 313 312 312 311 309 308 309 310 311 311 311
290 294 296 297 299 300 303 306 307 309 311 311 309 309 308 307 308 309 309 310 310 311 311 311 310 310 311 311 311 312 312 312 313 313 313 313 312 311 311 311 310 311 311
289 291 293 294 296 299 302 303 304 305 307 308 309 309 306 305 306 307 308 309 309 310 310 311 311 311 311 311 311 311 312 313 313 314 313 311 310 310 310 310 310 311 311
289 290 292 293 294 297 299 300 301 301 303 305 306 308 307 306 307 310 310 310 310 310 311 311 311 310 309 310 311 312 312 313 313 313 312 311 310 310 311 311 311 311 311
286 288 289 292 294 295 295 297 298 299 301 302 304 305 305 306 307 308 310 310 310 309 310 310 309 309 309 309 310 311 312 312 313 312 311 311 310 310 311 311 311 311 312
284 286 287 290 292 293 294 295 297 298 299 300 302 302 303 304 305 306 307 308 308 308 309 309 309 309 309 309 310 311 312 312 312 312 311 311 310 310 311 311 311 311 311
282 285 287 288 291 292 294 295 295 296 297 298 299 299 300 301 304 305 306 306 306 307 307 308 308 309 309 309 310 311 312 312 312 312 312 311 311 311 311 311 312 311 311
281 284 286 288 289 291 292 293 294 295 296 296 296 298 300 301 303 304 305 305 305 305 306 307 308 309 309 310 310 311 311 311 311 311 311 311 311 311 311 311 311 311 311
281 284 286 287 288 290 290 291 293 294 294 297 298 299 301 301 303 304 304 305 304 305 306 306 307 309 310 310 310 310 311 311 311 311 311 311 311 311 311 311 311 311 310
280 283 286 287 287 288 289 290 292 294 295 297 298 299 301 301 302 304 305 306 305 305 305 306 306 308 310 310 310 310 310 311 311 311 311 311 311 311 311 310 310 310 311
280 283 285 286 286 287 287 288 290 293 295 296 296 298 301 302 302 303 304 304 304 305 306 306 307 308 309 310 310 310 310 311 312 312 312 311 311 311 311 310 310 310 311
280 282 283 284 286 286 287 288 290 292 293 295 296 298 300 301 301 301 303 304 304 305 305 306 307 308 309 310 310 310 311 311 312 313 312 312 311 311 311 311 310 310 311
278 280 282 283 283 285 287 288 289 291 293 294 296 297 299 301 302 303 304 304 304 303 304 305 306 308 308 309 310 310 311 311 312 312 313 313 312 312 311 311 310 310 311
277 279 281 282 283 285 287 289 290 291 293 295 296 296 298 300 301 301 302 303 303 303 304 305 306 307 308 308 309 310 311 311 312 312 313 313 312 312 311 311 311 310 311
Height
5918 5917 5915 5913 5911 5909 5907 5906 5903 5902 5901 5900 5899 5898 5897 5896 5895 5894 5893 5892 5891 5890 5889 5888 5886 5885 5883 5882 5881 5879 5878 5876 5874 5872 5870 5868 5866 5864 5862 5859 5857 5854 5852
5916 5915 5913 5911 5909 5907 5906 5904 5902 5900 5899 5898 5896 5895 5894 5893 5892 5891 5890 5889 5888 5886 5885 5884 5883 5882 5880 5878 5877 5875 5873 5872 5870 5868 5866 5863 5861 5859 5856 5854 5851 5849 5846
5914 5912 5911 5909 5907 5905 5903 5902 5900 5898 5896 5895 5894 5892 5891 5890 5889 5887 5886 5885 5884 5883 5881 5880 5879 5878 5876 5875 5873 5871 5869 5867 5865 5863 5861 5858 5856 5854 5851 5848 5845 5843 5840
5912 5910 5909 5907 5905 5903 5901 5898 5897 5895 5894 5893 5891 5890 5888 5886 5885 5884 5882 5881 5880 5879 5877 5876 5875 5873 5872 5870 5869 5867 5865 5862 5860 5858 5856 5853 5850 5848 5845 5842 5839 5837 5834
5910 5908 5906 5904 5902 5900 5897 5895 5894 5892 5891 5890 5888 5887 5885 5883 5881 5880 5878 5877 5875 5874 5873 5872 5870 5869 5867 5865 5864 5862 5860 5857 5855 5852 5850 5847 5844 5842 5839 5836 5833 5830 5827
5907 5905 5903 5901 5899 5897 5895 5892 5891 5890 5888 5887 5885 5883 5882 5880 5878 5876 5875 5873 5872 5870 5869 5867 5865 5864 5863 5861 5859 5857 5854 5851 5849 5847 5844 5841 5838 5836 5833 5830 5827 5824 5821
5903 5902 5900 5898 5896 5895 5893 5891 5889 5887 5885 5883 5882 5880 5878 5877 5875 5873 5871 5869 5868 5866 5864 5862 5861 5859 5857 5856 5854 5851 5848 5845 5843 5841 5838 5835 5833 5830 5827 5824 5821 5817 5814
5900 5898 5897 5895 5893 5892 5890 5888 5886 5884 5882 5880 5879 5877 5875 5873 5871 5869 5867 5866 5863 5862 5860 5858 5856 5854 5852 5850 5848 5846 5843 5840 5837 5835 5832 5829 5826 5824 5821 5817 5814 5811 5807
5897 5895 5893 5892 5890 5889 5887 5885 5883 5881 5879 5877 5875 5873 5871 5870 5868 5866 5864 5862 5859 5857 5856 5854 5851 5850 5848 5845 5843 5840 5837 5834 5831 5829 5826 5823 5820 5817 5814 5811 5807 5804 5800
5893 5891 5890 5889 5887 5885 5883 5881 5879 5877 5875 5873 5871 5869 5868 5866 5864 5862 5860 5858 5856 5853 5851 5849 5847 5845 5843 5840 5837 5835 5831 5829 5826 5823 5820 5817 5814 5811 5807 5804 5800 5796 5793
5889 5888 5886 5885 5883 5882 5880 5877 5875 5873 5871 5869 5867 5865 5864 5862 5860 5858 5856 5854 5852 5849 5847 5845 5843 5840 5838 5835 5832 5829 5826 5823 5820 5817 5814 5811 5808 5804 5801 5796 5793 5789 5785
5885 5884 5882 5881 5879 5877 5875 5873 5871 5868 5866 5865 5863 5861 5860 5858 5856 5854 5852 5850 5847 5845 5843 5841 5838 5835 5833 5830 5827 5824 5821 5818 5815 5812 5808 5805 5801 5798 5794 5790 5786 5782 5778
5881 5880 5878 5877 5875 5873 5872 5869 5867 5864 5862 5861 5860 5858 5856 5854 5852 5850 5847 5845 5843 5841 5838 5836 5833 5831 5828 5825 5822 5819 5816 5812 5809 5805 5802 5798 5794 5791 5787 5783 5779 5775 5771
5876 5875 5873 5872 5871 5869 5867 5865 5863 5861 5859 5858 5856 5854 5853 5850 5848 5846 5843 5841 5839 5836 5834 5831 5828 5825 5823 5820 5817 5814 5810 5807 5803 5799 5795 5792 5788 5784 5780 5776 5772 5768 5764
5871 5870 5868 5867 5866 5864 5863 5861 5859 5857 5855 5854 5852 5850 5848 5846 5844 5841 5839 5837 5834 5831 5828 5825 5823 5820 5817 5814 5811 5808 5804 5800 5796 5792 5788 5785 5781 5777 5773 5768 5764 5760 5756
5865 5864 5863 5862 5860 5859 5858 5856 5854 5853 5851 5849 5848 5846 5843 5841 5839 5836 5834 5832 5829 5826 5823 5820 5817 5815 5811 5808 5805 5801 5797 5793 5789 5785 5781 5777 5773 5769 5765 5761 5757 5753 5749
5860 5859 5858 5856 5855 5854 5852 5851 5849 5848 5846 5844 5843 5841 5839 5836 5834 5831 5829 5826 5823 5820 5817 5814 5811 5808 5805 5801 5798 5794 5790 5786 5782 5778 5774 5770 5766 5762 5758 5753 5749 5745 5741
5854 5853 5852 5851 5849 5848 5847 5845 5844 5842 5841 5839 5837 5835 5833 5831 5828 5825 5823 5820 5817 5814 5811 5808 5805 5801 5798 5794 5790 5787 5783 5779 5774 5770 5766 5762 5758 5754 5750 5746 5741 5737 5733
5847 5847 5846 5844 5843 5842 5840 5839 5837 5836 5835 5833 5831 5829 5827 5824 5822 5819 5816 5813 5810 5807 5804 5801 5798 5794 5791 5787 5783 5779 5775 5771 5767 5763 5759 5754 5750 5746 5742 5738 5734 5729 5725
5841 5840 5839 5838 5837 5835 5834 5832 5831 5829 5828 5826 5825 5822 5820 5818 5815 5812 5809 5806 5803 5800 5797 5794 5790 5787 5783 5779 5776 5772 5768 5763 5759 5755 5751 5747 5742 5738 5734 5729 5725 5721 5717
5834 5833 5832 5831 5830 5829 5827 5826 5824 5822 5821 5819 5817 5815 5813 5811 5808 5805 5802 5799 5796 5793 5790 5786 5783 5779 5775 5772 5768 5764 5760 5756 5751 5747 5743 5739 5734 5730 5726 5721 5717 5713 5709
5827 5826 5826 5824 5823 5822 5820 5819 5817 5816 5814 5812 5810 5808 5805 5803 5800 5797 5794 5791 5788 5785 5782 5778 5775 5771 5768 5764 5760 5756 5752 5748 5743 5739 5735 5730 5726 5722 5717 5713 5709 5705 5700
5820 5819 5818 5817 5816 5815 5813 5812 5810 5809 5807 5805 5803 5800 5798 5795 5793 5790 5787 5784 5781 5777 5774 5770 5767 5763 5759 5756 5752 5748 5743 5739 5735 5731 5726 5722 5717 5713 5709 5705 5700 5696 5692
5812 5811 5811 5810 5808 5807 5806 5804 5803 5801 5799 5797 5795 5793 5790 5788 5785 5782 5779 5775 5772 5769 5765 5762 5759 5755 5751 5747 5744 5739 5735 5731 5726 5722 5718 5713 5709 5705 5700 5696 5692 5688 5684
5804 5804 5803 5802 5801 5800 5798 5797 5795 5793 5792 5790 5787 5785 5782 5779 5776 5773 5770 5767 5764 5760 5757 5754 5751 5747 5743 5739 5735 5731 5727 5722 5718 5713 5709 5705 5701 5697 5692 5688 5684 5680 5676
5797 5796 5795 5794 5793 5792 5791 5789 5788 5786 5784 5782 5779 5777 5774 5771 5768 5765 5762 5759 5755 5752 5749 5746 5742 5739 5735 5731 5727 5723 5719 5714 5710 5705 5701 5697 5693 5689 5684 5680 5676 5672 5668